owner,sensor,date,latitude,longitude,vertical_datum,sea_water_practical_salinity,qcFlag 
TCOON,ioos:station:TCOON:072:1,2013-01-01T00:00:00Z,27.8392,-97.4440,0.0,39.4,1111122 
TCOON,ioos:station:TCOON:072:1,2013-01-01T01:00:00Z,27.8392,-97.4440,0.0,39.3,1111122 
TCOON,ioos:station:TCOON:072:1,2013-01-01T01:30:00Z,27.8392,-97.4440,0.0,39.5,1111122 
TCOON,ioos:station:TCOON:072:1,2013-01-01T02:00:00Z,27.8392,-97.4440,0.0,39.5,1111122 
TCOON,ioos:station:TCOON:072:1,2013-01-01T02:30:00Z,27.8392,-97.4440,0.0,39.6,1111122 
TCOON,ioos:station:TCOON:072:1,2013-01-01T03:00:00Z,27.8392,-97.4440,0.0,39.8,1111122 
TCOON,ioos:station:TCOON:072:1,2013-01-01T03:30:00Z,27.8392,-97.4440,0.0,39.9,1111122 
TCOON,ioos:station:TCOON:072:1,2013-01-01T04:00:00Z,27.8392,-97.4440,0.0,39.9,1111122 
TCOON,ioos:station:TCOON:072:1,2013-01-01T04:30:00Z,27.8392,-97.4440,0.0,39.8,1111122 
TCOON,ioos:station:TCOON:072:1,2013-01-01T05:00:00Z,27.8392,-97.4440,0.0,40.0,1111122 
TCOON,ioos:station:TCOON:072:1,2013-01-01T05:30:00Z,27.8392,-97.4440,0.0,39.9,1111122 
TCOON,ioos:station:TCOON:072:1,2013-01-01T06:00:00Z,27.8392,-97.4440,0.0,39.8,1111122 
TCOON,ioos:station:TCOON:072:1,2013-01-01T06:30:00Z,27.8392,-97.4440,0.0,39.8,1111122 
TCOON,ioos:station:TCOON:072:1,2013-01-01T07:00:00Z,27.8392,-97.4440,0.0,39.8,1111122 
TCOON,ioos:station:TCOON:072:1,2013-01-01T07:30:00Z,27.8392,-97.4440,0.0,39.7,1111122 
TCOON,ioos:station:TCOON:072:1,2013-01-01T08:00:00Z,27.8392,-97.4440,0.0,39.7,1111122 
TCOON,ioos:station:TCOON:072:1,2013-01-01T08:30:00Z,27.8392,-97.4440,0.0,39.6,1111122 
TCOON,ioos:station:TCOON:072:1,2013-01-01T09:00:00Z,27.8392,-97.4440,0.0,39.5,1111122 
TCOON,ioos:station:TCOON:072:1,2013-01-01T09:30:00Z,27.8392,-97.4440,0.0,39.5,1111122 
TCOON,ioos:station:TCOON:072:1,2013-01-01T10:00:00Z,27.8392,-97.4440,0.0,39.6,1111122 
TCOON,ioos:station:TCOON:072:1,2013-01-01T10:30:00Z,27.8392,-97.4440,0.0,39.7,1111122 
TCOON,ioos:station:TCOON:072:1,2013-01-01T11:00:00Z,27.8392,-97.4440,0.0,39.7,1111122 
TCOON,ioos:station:TCOON:072:1,2013-01-01T11:30:00Z,27.8392,-97.4440,0.0,39.7,1111122 
TCOON,ioos:station:TCOON:072:1,2013-01-01T12:00:00Z,27.8392,-97.4440,0.0,39.7,1111122 
TCOON,ioos:station:TCOON:072:1,2013-01-01T12:30:00Z,27.8392,-97.4440,0.0,39.5,1111122 
TCOON,ioos:station:TCOON:072:1,2013-01-01T13:00:00Z,27.8392,-97.4440,0.0,39.5,1111122 
TCOON,ioos:station:TCOON:072:1,2013-01-01T13:30:00Z,27.8392,-97.4440,0.0,39.4,1111122 
TCOON,ioos:station:TCOON:072:1,2013-01-01T14:00:00Z,27.8392,-97.4440,0.0,39.5,1111122 
TCOON,ioos:station:TCOON:072:1,2013-01-01T14:30:00Z,27.8392,-97.4440,0.0,39.6,1111122 
TCOON,ioos:station:TCOON:072:1,2013-01-01T15:00:00Z,27.8392,-97.4440,0.0,39.5,1111122 
TCOON,ioos:station:TCOON:072:1,2013-01-01T15:30:00Z,27.8392,-97.4440,0.0,39.6,1111122 
TCOON,ioos:station:TCOON:072:1,2013-01-01T16:00:00Z,27.8392,-97.4440,0.0,39.7,1111122 
TCOON,ioos:station:TCOON:072:1,2013-01-01T16:30:00Z,27.8392,-97.4440,0.0,39.8,1111122 
TCOON,ioos:station:TCOON:072:1,2013-01-01T17:00:00Z,27.8392,-97.4440,0.0,39.8,1111122 
TCOON,ioos:station:TCOON:072:1,2013-01-01T17:30:00Z,27.8392,-97.4440,0.0,39.8,1111122 
TCOON,ioos:station:TCOON:072:1,2013-01-01T18:00:00Z,27.8392,-97.4440,0.0,39.7,1111122 
TCOON,ioos:station:TCOON:072:1,2013-01-01T18:30:00Z,27.8392,-97.4440,0.0,39.7,1111122 
TCOON,ioos:station:TCOON:072:1,2013-01-01T19:00:00Z,27.8392,-97.4440,0.0,39.7,1111122 
TCOON,ioos:station:TCOON:072:1,2013-01-01T19:30:00Z,27.8392,-97.4440,0.0,39.8,1111122 
TCOON,ioos:station:TCOON:072:1,2013-01-01T20:00:00Z,27.8392,-97.4440,0.0,39.8,1111122 
TCOON,ioos:station:TCOON:072:1,2013-01-01T20:30:00Z,27.8392,-97.4440,0.0,39.9,1111122 
TCOON,ioos:station:TCOON:072:1,2013-01-01T21:00:00Z,27.8392,-97.4440,0.0,40.1,1111122 
TCOON,ioos:station:TCOON:072:1,2013-01-01T21:30:00Z,27.8392,-97.4440,0.0,40.1,1111122 
TCOON,ioos:station:TCOON:072:1,2013-01-01T22:00:00Z,27.8392,-97.4440,0.0,40.1,1111122 
TCOON,ioos:station:TCOON:072:1,2013-01-01T22:30:00Z,27.8392,-97.4440,0.0,40.0,1111122 
TCOON,ioos:station:TCOON:072:1,2013-01-01T23:00:00Z,27.8392,-97.4440,0.0,40.2,1111122 
TCOON,ioos:station:TCOON:072:1,2013-01-01T23:30:00Z,27.8392,-97.4440,0.0,40.2,1111122 
TCOON,ioos:station:TCOON:072:1,2013-01-02T00:00:00Z,27.8392,-97.4440,0.0,40.2,1111122 
TCOON,ioos:station:TCOON:072:1,2013-01-02T00:30:00Z,27.8392,-97.4440,0.0,40.1,1111122 
TCOON,ioos:station:TCOON:072:1,2013-01-02T01:00:00Z,27.8392,-97.4440,0.0,40.1,1111122 
TCOON,ioos:station:TCOON:072:1,2013-01-02T01:30:00Z,27.8392,-97.4440,0.0,40.1,1111122 
TCOON,ioos:station:TCOON:072:1,2013-01-02T02:00:00Z,27.8392,-97.4440,0.0,40.1,1111122 
TCOON,ioos:station:TCOON:072:1,2013-01-02T02:30:00Z,27.8392,-97.4440,0.0,40.1,1111122 
TCOON,ioos:station:TCOON:072:1,2013-01-02T03:00:00Z,27.8392,-97.4440,0.0,40.1,1111122 
TCOON,ioos:station:TCOON:072:1,2013-01-02T03:30:00Z,27.8392,-97.4440,0.0,40.1,1111122 
TCOON,ioos:station:TCOON:072:1,2013-01-02T04:00:00Z,27.8392,-97.4440,0.0,40.1,1111122 
TCOON,ioos:station:TCOON:072:1,2013-01-02T04:30:00Z,27.8392,-97.4440,0.0,39.6,1111122 
TCOON,ioos:station:TCOON:072:1,2013-01-02T05:30:00Z,27.8392,-97.4440,0.0,39.9,1111122 
TCOON,ioos:station:TCOON:072:1,2013-01-02T06:00:00Z,27.8392,-97.4440,0.0,39.8,1111122 
TCOON,ioos:station:TCOON:072:1,2013-01-02T06:30:00Z,27.8392,-97.4440,0.0,39.9,1111122 
TCOON,ioos:station:TCOON:072:1,2013-01-02T07:00:00Z,27.8392,-97.4440,0.0,39.8,1111122 
TCOON,ioos:station:TCOON:072:1,2013-01-03T14:30:00Z,27.8392,-97.4440,0.0,40.7,1111122 
TCOON,ioos:station:TCOON:072:1,2013-01-03T15:00:00Z,27.8392,-97.4440,0.0,40.7,1111122 
TCOON,ioos:station:TCOON:072:1,2013-01-03T15:30:00Z,27.8392,-97.4440,0.0,40.6,1111122 
TCOON,ioos:station:TCOON:072:1,2013-01-03T16:00:00Z,27.8392,-97.4440,0.0,40.6,1111122 
TCOON,ioos:station:TCOON:072:1,2013-01-03T16:30:00Z,27.8392,-97.4440,0.0,40.6,1111122 
TCOON,ioos:station:TCOON:072:1,2013-01-03T17:00:00Z,27.8392,-97.4440,0.0,40.6,1111122 
TCOON,ioos:station:TCOON:072:1,2013-01-03T18:00:00Z,27.8392,-97.4440,0.0,40.6,1111122 
TCOON,ioos:station:TCOON:072:1,2013-01-03T18:30:00Z,27.8392,-97.4440,0.0,40.7,1111122 
TCOON,ioos:station:TCOON:072:1,2013-01-03T19:00:00Z,27.8392,-97.4440,0.0,40.9,1111122 
TCOON,ioos:station:TCOON:072:1,2013-01-03T19:30:00Z,27.8392,-97.4440,0.0,41.0,1111122 
TCOON,ioos:station:TCOON:072:1,2013-01-03T20:00:00Z,27.8392,-97.4440,0.0,41.1,1111122 
TCOON,ioos:station:TCOON:072:1,2013-01-03T20:30:00Z,27.8392,-97.4440,0.0,41.2,1111122 
TCOON,ioos:station:TCOON:072:1,2013-01-03T21:00:00Z,27.8392,-97.4440,0.0,41.4,1111122 
TCOON,ioos:station:TCOON:072:1,2013-01-03T21:30:00Z,27.8392,-97.4440,0.0,41.6,1111122 
TCOON,ioos:station:TCOON:072:1,2013-01-03T22:00:00Z,27.8392,-97.4440,0.0,41.7,1111122 
TCOON,ioos:station:TCOON:072:1,2013-01-03T22:30:00Z,27.8392,-97.4440,0.0,41.9,1111122 
TCOON,ioos:station:TCOON:072:1,2013-01-03T23:00:00Z,27.8392,-97.4440,0.0,41.8,1111122 
TCOON,ioos:station:TCOON:072:1,2013-01-03T23:30:00Z,27.8392,-97.4440,0.0,41.9,1111122 
TCOON,ioos:station:TCOON:072:1,2013-01-04T00:00:00Z,27.8392,-97.4440,0.0,41.8,1111122 
TCOON,ioos:station:TCOON:072:1,2013-01-04T00:30:00Z,27.8392,-97.4440,0.0,42.0,1111122 
TCOON,ioos:station:TCOON:072:1,2013-01-04T01:00:00Z,27.8392,-97.4440,0.0,41.6,1111122 
TCOON,ioos:station:TCOON:072:1,2013-01-04T02:00:00Z,27.8392,-97.4440,0.0,41.1,1111122 
TCOON,ioos:station:TCOON:072:1,2013-01-04T02:30:00Z,27.8392,-97.4440,0.0,41.0,1111122 
TCOON,ioos:station:TCOON:072:1,2013-01-04T03:00:00Z,27.8392,-97.4440,0.0,40.7,1111122 
TCOON,ioos:station:TCOON:072:1,2013-01-04T03:30:00Z,27.8392,-97.4440,0.0,40.5,1111122 
TCOON,ioos:station:TCOON:072:1,2013-01-04T04:00:00Z,27.8392,-97.4440,0.0,40.8,1111122 
TCOON,ioos:station:TCOON:072:1,2013-01-04T04:30:00Z,27.8392,-97.4440,0.0,40.0,1111122 
TCOON,ioos:station:TCOON:072:1,2013-01-04T05:00:00Z,27.8392,-97.4440,0.0,39.5,1111122 
TCOON,ioos:station:TCOON:072:1,2013-01-04T05:30:00Z,27.8392,-97.4440,0.0,39.5,1111122 
TCOON,ioos:station:TCOON:072:1,2013-01-04T06:00:00Z,27.8392,-97.4440,0.0,40.1,1111122 
TCOON,ioos:station:TCOON:072:1,2013-01-04T06:30:00Z,27.8392,-97.4440,0.0,40.3,1111122 
TCOON,ioos:station:TCOON:072:1,2013-01-04T07:00:00Z,27.8392,-97.4440,0.0,40.4,1111122 
TCOON,ioos:station:TCOON:072:1,2013-01-04T07:30:00Z,27.8392,-97.4440,0.0,40.4,1111122 
TCOON,ioos:station:TCOON:072:1,2013-01-04T08:00:00Z,27.8392,-97.4440,0.0,40.3,1111122 
TCOON,ioos:station:TCOON:072:1,2013-01-04T09:00:00Z,27.8392,-97.4440,0.0,40.5,1111122 
TCOON,ioos:station:TCOON:072:1,2013-01-04T09:30:00Z,27.8392,-97.4440,0.0,40.6,1111122 
TCOON,ioos:station:TCOON:072:1,2013-01-04T10:00:00Z,27.8392,-97.4440,0.0,40.8,1111122 
TCOON,ioos:station:TCOON:072:1,2013-01-04T10:30:00Z,27.8392,-97.4440,0.0,41.0,1111122 
TCOON,ioos:station:TCOON:072:1,2013-01-04T11:00:00Z,27.8392,-97.4440,0.0,41.2,1111122 
TCOON,ioos:station:TCOON:072:1,2013-01-04T11:30:00Z,27.8392,-97.4440,0.0,41.3,1111122 
TCOON,ioos:station:TCOON:072:1,2013-01-04T12:00:00Z,27.8392,-97.4440,0.0,41.3,1111122 
TCOON,ioos:station:TCOON:072:1,2013-01-04T12:30:00Z,27.8392,-97.4440,0.0,41.4,1111122 
TCOON,ioos:station:TCOON:072:1,2013-01-04T13:00:00Z,27.8392,-97.4440,0.0,41.5,1111122 
TCOON,ioos:station:TCOON:072:1,2013-01-04T13:30:00Z,27.8392,-97.4440,0.0,41.3,1111122 
TCOON,ioos:station:TCOON:072:1,2013-01-04T14:00:00Z,27.8392,-97.4440,0.0,41.3,1111122 
TCOON,ioos:station:TCOON:072:1,2013-01-04T14:30:00Z,27.8392,-97.4440,0.0,41.0,1111122 
TCOON,ioos:station:TCOON:072:1,2013-01-04T15:00:00Z,27.8392,-97.4440,0.0,40.7,1111122 
TCOON,ioos:station:TCOON:072:1,2013-01-04T15:30:00Z,27.8392,-97.4440,0.0,40.6,1111122 
TCOON,ioos:station:TCOON:072:1,2013-01-04T16:00:00Z,27.8392,-97.4440,0.0,40.3,1111122 
TCOON,ioos:station:TCOON:072:1,2013-01-04T16:30:00Z,27.8392,-97.4440,0.0,40.0,1111122 
TCOON,ioos:station:TCOON:072:1,2013-01-04T17:00:00Z,27.8392,-97.4440,0.0,39.9,1111122 
TCOON,ioos:station:TCOON:072:1,2013-01-04T17:30:00Z,27.8392,-97.4440,0.0,39.9,1111122 
TCOON,ioos:station:TCOON:072:1,2013-01-04T18:00:00Z,27.8392,-97.4440,0.0,40.1,1111122 
TCOON,ioos:station:TCOON:072:1,2013-01-04T18:30:00Z,27.8392,-97.4440,0.0,40.1,1111122 
TCOON,ioos:station:TCOON:072:1,2013-01-04T19:00:00Z,27.8392,-97.4440,0.0,40.1,1111122 
TCOON,ioos:station:TCOON:072:1,2013-01-04T19:30:00Z,27.8392,-97.4440,0.0,40.2,1111122 
TCOON,ioos:station:TCOON:072:1,2013-01-04T20:00:00Z,27.8392,-97.4440,0.0,40.3,1111122 
TCOON,ioos:station:TCOON:072:1,2013-01-04T20:30:00Z,27.8392,-97.4440,0.0,40.3,1111122 
TCOON,ioos:station:TCOON:072:1,2013-01-04T21:00:00Z,27.8392,-97.4440,0.0,40.3,1111122 
TCOON,ioos:station:TCOON:072:1,2013-01-04T21:30:00Z,27.8392,-97.4440,0.0,40.3,1111122 
TCOON,ioos:station:TCOON:072:1,2013-01-04T22:00:00Z,27.8392,-97.4440,0.0,40.4,1111122 
TCOON,ioos:station:TCOON:072:1,2013-01-04T22:30:00Z,27.8392,-97.4440,0.0,40.4,1111122 
TCOON,ioos:station:TCOON:072:1,2013-01-04T23:00:00Z,27.8392,-97.4440,0.0,40.4,1111122 
TCOON,ioos:station:TCOON:072:1,2013-01-04T23:30:00Z,27.8392,-97.4440,0.0,40.4,1111122 
TCOON,ioos:station:TCOON:072:1,2013-01-05T00:00:00Z,27.8392,-97.4440,0.0,40.4,1111122 
TCOON,ioos:station:TCOON:072:1,2013-01-05T00:30:00Z,27.8392,-97.4440,0.0,40.4,1111122 
TCOON,ioos:station:TCOON:072:1,2013-01-05T01:00:00Z,27.8392,-97.4440,0.0,40.4,1111122 
TCOON,ioos:station:TCOON:072:1,2013-01-05T01:30:00Z,27.8392,-97.4440,0.0,40.4,1111122 
TCOON,ioos:station:TCOON:072:1,2013-01-05T02:30:00Z,27.8392,-97.4440,0.0,40.4,1111122 
TCOON,ioos:station:TCOON:072:1,2013-01-05T03:00:00Z,27.8392,-97.4440,0.0,40.4,1111122 
TCOON,ioos:station:TCOON:072:1,2013-01-05T03:30:00Z,27.8392,-97.4440,0.0,40.4,1111122 
TCOON,ioos:station:TCOON:072:1,2013-01-05T04:00:00Z,27.8392,-97.4440,0.0,40.5,1111122 
TCOON,ioos:station:TCOON:072:1,2013-01-05T04:30:00Z,27.8392,-97.4440,0.0,40.5,1111122 
TCOON,ioos:station:TCOON:072:1,2013-01-05T05:00:00Z,27.8392,-97.4440,0.0,40.5,1111122 
TCOON,ioos:station:TCOON:072:1,2013-01-05T05:30:00Z,27.8392,-97.4440,0.0,40.5,1111122 
TCOON,ioos:station:TCOON:072:1,2013-01-05T06:00:00Z,27.8392,-97.4440,0.0,40.5,1111122 
TCOON,ioos:station:TCOON:072:1,2013-01-05T06:30:00Z,27.8392,-97.4440,0.0,40.5,1111122 
TCOON,ioos:station:TCOON:072:1,2013-01-05T07:00:00Z,27.8392,-97.4440,0.0,40.5,1111122 
TCOON,ioos:station:TCOON:072:1,2013-01-05T07:30:00Z,27.8392,-97.4440,0.0,40.4,1111122 
TCOON,ioos:station:TCOON:072:1,2013-01-05T08:00:00Z,27.8392,-97.4440,0.0,40.2,1111122 
TCOON,ioos:station:TCOON:072:1,2013-01-05T08:30:00Z,27.8392,-97.4440,0.0,40.2,1111122 
TCOON,ioos:station:TCOON:072:1,2013-01-05T09:00:00Z,27.8392,-97.4440,0.0,40.2,1111122 
TCOON,ioos:station:TCOON:072:1,2013-01-05T09:30:00Z,27.8392,-97.4440,0.0,40.4,1111122 
TCOON,ioos:station:TCOON:072:1,2013-01-05T10:00:00Z,27.8392,-97.4440,0.0,40.4,1111122 
TCOON,ioos:station:TCOON:072:1,2013-01-05T10:30:00Z,27.8392,-97.4440,0.0,40.5,1111122 
TCOON,ioos:station:TCOON:072:1,2013-01-05T11:00:00Z,27.8392,-97.4440,0.0,40.3,1111122 
TCOON,ioos:station:TCOON:072:1,2013-01-05T11:30:00Z,27.8392,-97.4440,0.0,40.4,1111122 
TCOON,ioos:station:TCOON:072:1,2013-01-05T12:00:00Z,27.8392,-97.4440,0.0,40.5,1111122 
TCOON,ioos:station:TCOON:072:1,2013-01-05T12:30:00Z,27.8392,-97.4440,0.0,40.6,1111122 
TCOON,ioos:station:TCOON:072:1,2013-01-05T13:00:00Z,27.8392,-97.4440,0.0,40.6,1111122 
TCOON,ioos:station:TCOON:072:1,2013-01-05T13:30:00Z,27.8392,-97.4440,0.0,40.9,1111122 
TCOON,ioos:station:TCOON:072:1,2013-01-05T14:00:00Z,27.8392,-97.4440,0.0,41.1,1111122 
TCOON,ioos:station:TCOON:072:1,2013-01-05T14:30:00Z,27.8392,-97.4440,0.0,41.1,1111122 
TCOON,ioos:station:TCOON:072:1,2013-01-05T15:00:00Z,27.8392,-97.4440,0.0,41.0,1111122 
TCOON,ioos:station:TCOON:072:1,2013-01-05T15:30:00Z,27.8392,-97.4440,0.0,40.9,1111122 
TCOON,ioos:station:TCOON:072:1,2013-01-05T16:00:00Z,27.8392,-97.4440,0.0,40.9,1111122 
TCOON,ioos:station:TCOON:072:1,2013-01-05T16:30:00Z,27.8392,-97.4440,0.0,40.9,1111122 
TCOON,ioos:station:TCOON:072:1,2013-01-05T17:00:00Z,27.8392,-97.4440,0.0,40.7,1111122 
TCOON,ioos:station:TCOON:072:1,2013-01-05T17:30:00Z,27.8392,-97.4440,0.0,40.7,1111122 
TCOON,ioos:station:TCOON:072:1,2013-01-05T18:00:00Z,27.8392,-97.4440,0.0,40.7,1111122 
TCOON,ioos:station:TCOON:072:1,2013-01-05T18:30:00Z,27.8392,-97.4440,0.0,40.9,1111122 
TCOON,ioos:station:TCOON:072:1,2013-01-05T19:00:00Z,27.8392,-97.4440,0.0,40.6,1111122 
TCOON,ioos:station:TCOON:072:1,2013-01-05T19:30:00Z,27.8392,-97.4440,0.0,40.6,1111122 
TCOON,ioos:station:TCOON:072:1,2013-01-05T20:00:00Z,27.8392,-97.4440,0.0,40.5,1111122 
TCOON,ioos:station:TCOON:072:1,2013-01-05T20:30:00Z,27.8392,-97.4440,0.0,40.5,1111122 
TCOON,ioos:station:TCOON:072:1,2013-01-05T21:00:00Z,27.8392,-97.4440,0.0,40.5,1111122 
TCOON,ioos:station:TCOON:072:1,2013-01-05T21:30:00Z,27.8392,-97.4440,0.0,40.4,1111122 
TCOON,ioos:station:TCOON:072:1,2013-01-05T22:00:00Z,27.8392,-97.4440,0.0,40.4,1111122 
TCOON,ioos:station:TCOON:072:1,2013-01-05T23:00:00Z,27.8392,-97.4440,0.0,40.3,1111122 
TCOON,ioos:station:TCOON:072:1,2013-01-05T23:30:00Z,27.8392,-97.4440,0.0,40.3,1111122 
TCOON,ioos:station:TCOON:072:1,2013-01-06T00:00:00Z,27.8392,-97.4440,0.0,40.3,1111122 
TCOON,ioos:station:TCOON:072:1,2013-01-06T00:30:00Z,27.8392,-97.4440,0.0,40.4,1111122 
TCOON,ioos:station:TCOON:072:1,2013-01-06T01:00:00Z,27.8392,-97.4440,0.0,40.4,1111122 
TCOON,ioos:station:TCOON:072:1,2013-01-06T01:30:00Z,27.8392,-97.4440,0.0,40.4,1111122 
TCOON,ioos:station:TCOON:072:1,2013-01-06T02:00:00Z,27.8392,-97.4440,0.0,40.4,1111122 
TCOON,ioos:station:TCOON:072:1,2013-01-06T02:30:00Z,27.8392,-97.4440,0.0,40.4,1111122 
TCOON,ioos:station:TCOON:072:1,2013-01-06T03:30:00Z,27.8392,-97.4440,0.0,40.4,1111122 
TCOON,ioos:station:TCOON:072:1,2013-01-06T04:00:00Z,27.8392,-97.4440,0.0,40.4,1111122 
TCOON,ioos:station:TCOON:072:1,2013-01-06T04:30:00Z,27.8392,-97.4440,0.0,40.4,1111122 
TCOON,ioos:station:TCOON:072:1,2013-01-06T05:00:00Z,27.8392,-97.4440,0.0,40.4,1111122 
TCOON,ioos:station:TCOON:072:1,2013-01-06T05:30:00Z,27.8392,-97.4440,0.0,40.4,1111122 
TCOON,ioos:station:TCOON:072:1,2013-01-06T06:00:00Z,27.8392,-97.4440,0.0,40.4,1111122 
TCOON,ioos:station:TCOON:072:1,2013-01-06T06:30:00Z,27.8392,-97.4440,0.0,40.4,1111122 
TCOON,ioos:station:TCOON:072:1,2013-01-06T07:00:00Z,27.8392,-97.4440,0.0,40.4,1111122 
TCOON,ioos:station:TCOON:072:1,2013-01-06T07:30:00Z,27.8392,-97.4440,0.0,40.3,1111122 
TCOON,ioos:station:TCOON:072:1,2013-01-06T08:00:00Z,27.8392,-97.4440,0.0,40.4,1111122 
TCOON,ioos:station:TCOON:072:1,2013-01-06T08:30:00Z,27.8392,-97.4440,0.0,40.4,1111122 
TCOON,ioos:station:TCOON:072:1,2013-01-06T09:00:00Z,27.8392,-97.4440,0.0,40.5,1111122 
TCOON,ioos:station:TCOON:072:1,2013-01-06T09:30:00Z,27.8392,-97.4440,0.0,40.8,1111122 
TCOON,ioos:station:TCOON:072:1,2013-01-06T10:00:00Z,27.8392,-97.4440,0.0,40.8,1111122 
TCOON,ioos:station:TCOON:072:1,2013-01-06T10:30:00Z,27.8392,-97.4440,0.0,41.0,1111122 
TCOON,ioos:station:TCOON:072:1,2013-01-06T11:00:00Z,27.8392,-97.4440,0.0,41.0,1111122 
TCOON,ioos:station:TCOON:072:1,2013-01-06T11:30:00Z,27.8392,-97.4440,0.0,40.8,1111122 
TCOON,ioos:station:TCOON:072:1,2013-01-06T12:00:00Z,27.8392,-97.4440,0.0,40.7,1111122 
TCOON,ioos:station:TCOON:072:1,2013-01-06T12:30:00Z,27.8392,-97.4440,0.0,40.8,1111122 
TCOON,ioos:station:TCOON:072:1,2013-01-06T13:00:00Z,27.8392,-97.4440,0.0,40.8,1111122 
TCOON,ioos:station:TCOON:072:1,2013-01-06T13:30:00Z,27.8392,-97.4440,0.0,40.9,1111122 
TCOON,ioos:station:TCOON:072:1,2013-01-06T14:00:00Z,27.8392,-97.4440,0.0,41.0,1111122 
TCOON,ioos:station:TCOON:072:1,2013-01-06T14:30:00Z,27.8392,-97.4440,0.0,41.0,1111122 
TCOON,ioos:station:TCOON:072:1,2013-01-06T15:00:00Z,27.8392,-97.4440,0.0,41.0,1111122 
TCOON,ioos:station:TCOON:072:1,2013-01-06T15:30:00Z,27.8392,-97.4440,0.0,41.0,1111122 
TCOON,ioos:station:TCOON:072:1,2013-01-06T16:00:00Z,27.8392,-97.4440,0.0,41.0,1111122 
TCOON,ioos:station:TCOON:072:1,2013-01-06T16:30:00Z,27.8392,-97.4440,0.0,41.0,1111122 
TCOON,ioos:station:TCOON:072:1,2013-01-06T17:00:00Z,27.8392,-97.4440,0.0,41.1,1111122 
TCOON,ioos:station:TCOON:072:1,2013-01-06T17:30:00Z,27.8392,-97.4440,0.0,41.0,1111122 
TCOON,ioos:station:TCOON:072:1,2013-01-06T18:00:00Z,27.8392,-97.4440,0.0,41.0,1111122 
TCOON,ioos:station:TCOON:072:1,2013-01-06T18:30:00Z,27.8392,-97.4440,0.0,40.9,1111122 
TCOON,ioos:station:TCOON:072:1,2013-01-06T19:00:00Z,27.8392,-97.4440,0.0,40.9,1111122 
TCOON,ioos:station:TCOON:072:1,2013-01-06T19:30:00Z,27.8392,-97.4440,0.0,40.8,1111122 
TCOON,ioos:station:TCOON:072:1,2013-01-06T20:00:00Z,27.8392,-97.4440,0.0,40.7,1111122 
TCOON,ioos:station:TCOON:072:1,2013-01-06T20:30:00Z,27.8392,-97.4440,0.0,40.7,1111122 
TCOON,ioos:station:TCOON:072:1,2013-01-06T21:00:00Z,27.8392,-97.4440,0.0,40.6,1111122 
TCOON,ioos:station:TCOON:072:1,2013-01-06T21:30:00Z,27.8392,-97.4440,0.0,40.5,1111122 
TCOON,ioos:station:TCOON:072:1,2013-01-06T22:00:00Z,27.8392,-97.4440,0.0,40.6,1111122 
TCOON,ioos:station:TCOON:072:1,2013-01-06T22:30:00Z,27.8392,-97.4440,0.0,40.5,1111122 
TCOON,ioos:station:TCOON:072:1,2013-01-06T23:00:00Z,27.8392,-97.4440,0.0,40.4,1111122 
TCOON,ioos:station:TCOON:072:1,2013-01-06T23:30:00Z,27.8392,-97.4440,0.0,40.3,1111122 
TCOON,ioos:station:TCOON:072:1,2013-01-07T00:00:00Z,27.8392,-97.4440,0.0,40.3,1111122 
TCOON,ioos:station:TCOON:072:1,2013-01-07T00:30:00Z,27.8392,-97.4440,0.0,40.1,1111122 
TCOON,ioos:station:TCOON:072:1,2013-01-07T01:00:00Z,27.8392,-97.4440,0.0,40.1,1111122 
TCOON,ioos:station:TCOON:072:1,2013-01-07T02:30:00Z,27.8392,-97.4440,0.0,40.0,1111122 
TCOON,ioos:station:TCOON:072:1,2013-01-07T03:00:00Z,27.8392,-97.4440,0.0,40.2,1111122 
TCOON,ioos:station:TCOON:072:1,2013-01-07T03:30:00Z,27.8392,-97.4440,0.0,40.4,1111122 
TCOON,ioos:station:TCOON:072:1,2013-01-07T04:00:00Z,27.8392,-97.4440,0.0,40.3,1111122 
TCOON,ioos:station:TCOON:072:1,2013-01-07T04:30:00Z,27.8392,-97.4440,0.0,40.5,1111122 
TCOON,ioos:station:TCOON:072:1,2013-01-07T05:00:00Z,27.8392,-97.4440,0.0,40.6,1111122 
TCOON,ioos:station:TCOON:072:1,2013-01-07T05:30:00Z,27.8392,-97.4440,0.0,40.6,1111122 
TCOON,ioos:station:TCOON:072:1,2013-01-07T06:00:00Z,27.8392,-97.4440,0.0,40.5,1111122 
TCOON,ioos:station:TCOON:072:1,2013-01-07T06:30:00Z,27.8392,-97.4440,0.0,40.3,1111122 
TCOON,ioos:station:TCOON:072:1,2013-01-07T07:00:00Z,27.8392,-97.4440,0.0,40.6,1111122 
TCOON,ioos:station:TCOON:072:1,2013-01-07T07:30:00Z,27.8392,-97.4440,0.0,40.5,1111122 
TCOON,ioos:station:TCOON:072:1,2013-01-07T08:00:00Z,27.8392,-97.4440,0.0,40.6,1111122 
TCOON,ioos:station:TCOON:072:1,2013-01-07T08:30:00Z,27.8392,-97.4440,0.0,40.7,1111122 
TCOON,ioos:station:TCOON:072:1,2013-01-07T09:00:00Z,27.8392,-97.4440,0.0,40.1,1111122 
TCOON,ioos:station:TCOON:072:1,2013-01-07T09:30:00Z,27.8392,-97.4440,0.0,40.2,1111122 
TCOON,ioos:station:TCOON:072:1,2013-01-07T10:00:00Z,27.8392,-97.4440,0.0,40.3,1111122 
TCOON,ioos:station:TCOON:072:1,2013-01-07T10:30:00Z,27.8392,-97.4440,0.0,40.1,1111122 
TCOON,ioos:station:TCOON:072:1,2013-01-07T11:00:00Z,27.8392,-97.4440,0.0,40.1,1111122 
TCOON,ioos:station:TCOON:072:1,2013-01-07T11:30:00Z,27.8392,-97.4440,0.0,40.1,1111122 
TCOON,ioos:station:TCOON:072:1,2013-01-07T12:00:00Z,27.8392,-97.4440,0.0,40.1,1111122 
TCOON,ioos:station:TCOON:072:1,2013-01-07T12:30:00Z,27.8392,-97.4440,0.0,40.1,1111122 
TCOON,ioos:station:TCOON:072:1,2013-01-07T13:00:00Z,27.8392,-97.4440,0.0,40.1,1111122 
TCOON,ioos:station:TCOON:072:1,2013-01-07T13:30:00Z,27.8392,-97.4440,0.0,40.1,1111122 
TCOON,ioos:station:TCOON:072:1,2013-01-07T14:00:00Z,27.8392,-97.4440,0.0,40.0,1111122 
TCOON,ioos:station:TCOON:072:1,2013-01-07T14:30:00Z,27.8392,-97.4440,0.0,40.0,1111122 
TCOON,ioos:station:TCOON:072:1,2013-01-07T15:00:00Z,27.8392,-97.4440,0.0,40.0,1111122 
TCOON,ioos:station:TCOON:072:1,2013-01-07T15:30:00Z,27.8392,-97.4440,0.0,40.0,1111122 
TCOON,ioos:station:TCOON:072:1,2013-01-07T16:00:00Z,27.8392,-97.4440,0.0,40.0,1111122 
TCOON,ioos:station:TCOON:072:1,2013-01-07T16:30:00Z,27.8392,-97.4440,0.0,39.9,1111122 
TCOON,ioos:station:TCOON:072:1,2013-01-07T17:00:00Z,27.8392,-97.4440,0.0,39.9,1111122 
TCOON,ioos:station:TCOON:072:1,2013-01-07T17:30:00Z,27.8392,-97.4440,0.0,39.9,1111122 
TCOON,ioos:station:TCOON:072:1,2013-01-07T18:00:00Z,27.8392,-97.4440,0.0,39.9,1111122 
TCOON,ioos:station:TCOON:072:1,2013-01-07T18:30:00Z,27.8392,-97.4440,0.0,39.9,1111122 
TCOON,ioos:station:TCOON:072:1,2013-01-07T19:00:00Z,27.8392,-97.4440,0.0,40.1,1111122 
TCOON,ioos:station:TCOON:072:1,2013-01-07T19:30:00Z,27.8392,-97.4440,0.0,40.0,1111122 
TCOON,ioos:station:TCOON:072:1,2013-01-07T20:00:00Z,27.8392,-97.4440,0.0,39.9,1111122 
TCOON,ioos:station:TCOON:072:1,2013-01-07T20:30:00Z,27.8392,-97.4440,0.0,39.9,1111122 
TCOON,ioos:station:TCOON:072:1,2013-01-07T21:00:00Z,27.8392,-97.4440,0.0,39.8,1111122 
TCOON,ioos:station:TCOON:072:1,2013-01-07T21:30:00Z,27.8392,-97.4440,0.0,39.8,1111122 
TCOON,ioos:station:TCOON:072:1,2013-01-07T22:00:00Z,27.8392,-97.4440,0.0,39.8,1111122 
TCOON,ioos:station:TCOON:072:1,2013-01-07T22:30:00Z,27.8392,-97.4440,0.0,39.8,1111122 
TCOON,ioos:station:TCOON:072:1,2013-01-07T23:00:00Z,27.8392,-97.4440,0.0,39.8,1111122 
TCOON,ioos:station:TCOON:072:1,2013-01-07T23:30:00Z,27.8392,-97.4440,0.0,39.9,1111122 
TCOON,ioos:station:TCOON:072:1,2013-01-08T00:30:00Z,27.8392,-97.4440,0.0,40.0,1111122 
TCOON,ioos:station:TCOON:072:1,2013-01-08T01:00:00Z,27.8392,-97.4440,0.0,40.0,1111122 
TCOON,ioos:station:TCOON:072:1,2013-01-08T01:30:00Z,27.8392,-97.4440,0.0,40.0,1111122 
TCOON,ioos:station:TCOON:072:1,2013-01-08T02:00:00Z,27.8392,-97.4440,0.0,40.0,1111122 
TCOON,ioos:station:TCOON:072:1,2013-01-08T02:30:00Z,27.8392,-97.4440,0.0,40.0,1111122 
TCOON,ioos:station:TCOON:072:1,2013-01-08T03:30:00Z,27.8392,-97.4440,0.0,39.9,1111122 
TCOON,ioos:station:TCOON:072:1,2013-01-08T04:00:00Z,27.8392,-97.4440,0.0,39.9,1111122 
TCOON,ioos:station:TCOON:072:1,2013-01-08T04:30:00Z,27.8392,-97.4440,0.0,39.9,1111122 
TCOON,ioos:station:TCOON:072:1,2013-01-08T05:00:00Z,27.8392,-97.4440,0.0,39.9,1111122 
TCOON,ioos:station:TCOON:072:1,2013-01-08T05:30:00Z,27.8392,-97.4440,0.0,40.0,1111122 